User: anonymous   Login
Location: Ab? ar R?sh Ba?r?
(24.1861°N, 32.8847°E)
Time: 02:22:47
(UTC+00:00)
Language:

Cosmos 2322 - Orbit

View from above orbital plane
View from above orbital plane
View from above satellite
View from above satellite

Ground track
Ground track

The orbit data is extracted from the following two-line orbital elements,

1 23704U 95058A   22020.60203734  .00000324  00000-0  19764-3 0  9993
2 23704  70.9870 125.7015 0007822  68.8868 291.3089 14.13454070352790
Epoch (UTC): 20 January 2022 14:26:56
Eccentricity: 0.0007822
inclination: 70.9870°
perigee height: 842 km
apogee height: 853 km
right ascension of ascending node: 125.7015°
argument of perigee: 68.8868°
revolutions per day: 14.13454070
mean anomaly at epoch: 291.3089°
orbit number at epoch: 35279

The dashed part of the orbit path shows where the satellite is in the earth's shadow,  

DLR